Year,Month,Day,Hour,Minute,Value (Times are PST for temperature in C)
2008,03,25,01,06,4.20
2008,03,25,01,07,4.20
2008,03,25,01,08,4.20
2008,03,25,01,09,4.20
2008,03,25,01,11,4.20
2008,03,25,01,12,4.00
2008,03,25,01,13,4.00
2008,03,25,01,14,4.00
2008,03,25,01,15,3.90
2008,03,25,01,16,3.90
2008,03,25,01,17,3.90
2008,03,25,01,18,3.90
2008,03,25,01,19,3.90
2008,03,25,01,20,3.90
2008,03,25,01,21,3.90
2008,03,25,01,22,3.90
2008,03,25,01,23,3.90
2008,03,25,01,24,3.90
2008,03,25,01,25,3.90
2008,03,25,01,26,3.90
2008,03,25,01,27,3.70
2008,03,25,01,29,3.70
2008,03,25,01,30,3.70
2008,03,25,01,31,3.70
2008,03,25,01,32,3.70
2008,03,25,01,33,3.70
2008,03,25,01,35,3.70
2008,03,25,01,36,3.70
2008,03,25,01,37,3.70
2008,03,25,01,38,3.70
2008,03,25,01,39,3.60
2008,03,25,01,40,3.60
2008,03,25,01,41,3.60
2008,03,25,01,42,3.60
2008,03,25,01,43,3.60
2008,03,25,01,44,3.60
2008,03,25,01,45,3.60
2008,03,25,01,46,3.60
2008,03,25,01,48,3.60
2008,03,25,01,49,3.60
2008,03,25,01,50,3.60
2008,03,25,01,51,3.60
2008,03,25,01,52,3.60
2008,03,25,01,53,3.60
2008,03,25,01,54,3.60
2008,03,25,01,55,3.60
2008,03,25,01,56,3.60
2008,03,25,01,57,3.60
2008,03,25,01,58,3.60
2008,03,25,01,59,3.60
2008,03,25,02,00,3.70
2008,03,25,02,01,3.70
2008,03,25,02,02,3.70
2008,03,25,02,03,3.70
2008,03,25,02,04,3.70
2008,03,25,02,05,3.70
2008,03,25,02,06,3.70
2008,03,25,02,07,3.70
2008,03,25,02,08,3.70
2008,03,25,02,09,3.70
2008,03,25,02,10,3.70
2008,03,25,02,11,3.70
2008,03,25,02,12,3.70
2008,03,25,02,13,3.70
2008,03,25,02,14,3.70
2008,03,25,02,15,3.70
2008,03,25,02,16,3.70
2008,03,25,02,17,3.70
2008,03,25,02,18,3.70
2008,03,25,02,19,3.70
2008,03,25,02,20,3.70
2008,03,25,02,21,3.80
2008,03,25,02,22,3.80
2008,03,25,02,23,3.80
2008,03,25,02,24,3.80
2008,03,25,02,25,3.80
2008,03,25,02,26,3.80
2008,03,25,02,28,3.80
2008,03,25,02,29,3.80
2008,03,25,02,30,3.80
2008,03,25,02,31,3.80
2008,03,25,02,32,3.80
2008,03,25,02,33,3.80
2008,03,25,02,34,3.80
2008,03,25,02,35,3.80
2008,03,25,02,36,3.80
2008,03,25,02,37,3.80
2008,03,25,02,38,3.80
2008,03,25,02,39,3.80
2008,03,25,02,40,3.80
2008,03,25,02,41,3.80
2008,03,25,02,42,3.80
2008,03,25,02,43,3.80
2008,03,25,02,44,3.80
2008,03,25,02,45,3.80
2008,03,25,02,46,3.80
2008,03,25,02,47,3.80
2008,03,25,02,48,3.70
2008,03,25,02,49,3.70
2008,03,25,02,50,3.70
2008,03,25,02,51,3.70
2008,03,25,02,52,3.70
2008,03,25,02,53,3.70
2008,03,25,02,54,3.70
2008,03,25,02,55,3.70
2008,03,25,02,56,3.70
2008,03,25,02,57,3.70
2008,03,25,02,58,3.70
2008,03,25,02,59,3.70
2008,03,25,03,00,3.70
2008,03,25,03,01,3.70
2008,03,25,03,02,3.70
2008,03,25,03,03,3.60
2008,03,25,03,04,3.60
2008,03,25,03,05,3.60
2008,03,25,03,06,3.60
2008,03,25,03,07,3.60
2008,03,25,03,08,3.60
2008,03,25,03,09,3.60
2008,03,25,03,10,3.60
2008,03,25,03,11,3.60
2008,03,25,03,12,3.60
2008,03,25,03,13,3.60
2008,03,25,03,14,3.60
2008,03,25,03,15,3.70
2008,03,25,03,16,3.70
2008,03,25,03,17,3.70
2008,03,25,03,18,3.70
2008,03,25,03,19,3.70
2008,03,25,03,20,3.70
2008,03,25,03,21,3.80
2008,03,25,03,22,3.80
2008,03,25,03,23,3.80
2008,03,25,03,24,3.80
2008,03,25,03,25,3.80
2008,03,25,03,26,3.80
2008,03,25,03,27,3.90
2008,03,25,03,28,3.90
2008,03,25,03,29,3.90
2008,03,25,03,30,3.90
2008,03,25,03,31,3.90
2008,03,25,03,32,3.90
2008,03,25,03,33,3.90
2008,03,25,03,34,3.90
2008,03,25,03,35,3.90
2008,03,25,03,36,3.90
2008,03,25,03,37,3.90
2008,03,25,03,38,3.90
2008,03,25,03,39,3.90
2008,03,25,03,40,3.90
2008,03,25,03,41,3.90
2008,03,25,03,42,3.90
2008,03,25,03,43,3.90
2008,03,25,03,44,3.90
2008,03,25,03,45,3.90
2008,03,25,03,46,3.90
2008,03,25,03,47,3.90
2008,03,25,03,48,4.00
2008,03,25,03,49,4.00
2008,03,25,03,50,4.00
2008,03,25,03,51,4.00
2008,03,25,03,52,4.00
2008,03,25,03,53,4.00
2008,03,25,03,54,4.00
2008,03,25,03,55,4.00
2008,03,25,03,56,4.00
2008,03,25,03,57,3.90
2008,03,25,03,58,3.90
2008,03,25,03,59,3.90
2008,03,25,04,00,3.90
2008,03,25,04,02,3.90
2008,03,25,04,03,3.90
2008,03,25,04,04,3.90
2008,03,25,04,05,3.90
2008,03,25,04,06,3.90
2008,03,25,04,07,3.90
2008,03,25,04,08,3.90
2008,03,25,04,09,4.10
2008,03,25,04,10,4.10
2008,03,25,04,11,4.10
2008,03,25,04,12,4.10
2008,03,25,04,13,4.10
2008,03,25,04,14,4.10
2008,03,25,04,15,4.10
2008,03,25,04,16,4.10
2008,03,25,04,17,4.10
2008,03,25,04,18,4.10
2008,03,25,04,19,4.10
2008,03,25,04,20,4.10
2008,03,25,04,21,4.10
2008,03,25,04,22,4.10
2008,03,25,04,23,4.10
2008,03,25,04,24,4.00
2008,03,25,04,25,4.00
2008,03,25,04,26,4.00
2008,03,25,04,27,4.00
2008,03,25,04,28,4.00
2008,03,25,04,29,4.00
2008,03,25,04,30,4.00
2008,03,25,04,31,4.00
2008,03,25,04,32,4.00
2008,03,25,04,33,4.00
2008,03,25,04,34,4.00
2008,03,25,04,35,4.00
2008,03,25,04,36,4.00
2008,03,25,04,37,3.80
2008,03,25,04,38,3.80
2008,03,25,04,39,3.80
2008,03,25,04,40,3.80
2008,03,25,04,41,3.80
2008,03,25,04,42,3.80
2008,03,25,04,43,3.80
2008,03,25,04,44,3.80
2008,03,25,04,45,3.80
2008,03,25,04,46,3.80
2008,03,25,04,47,3.80
2008,03,25,04,48,3.80
2008,03,25,04,49,3.70
2008,03,25,04,50,3.70
2008,03,25,04,51,3.70
2008,03,25,04,52,3.60
2008,03,25,04,53,3.60
2008,03,25,04,54,3.60
2008,03,25,04,55,3.60
2008,03,25,04,56,3.60
2008,03,25,04,57,3.60
2008,03,25,04,58,3.60
2008,03,25,04,59,3.60
2008,03,25,05,00,3.60
2008,03,25,05,01,3.60
2008,03,25,05,02,3.60
2008,03,25,05,03,3.60
2008,03,25,05,04,3.60
2008,03,25,05,05,3.70
2008,03,25,05,06,3.70
2008,03,25,05,07,3.70
2008,03,25,05,08,3.70
2008,03,25,05,09,3.70
2008,03,25,05,10,3.70
2008,03,25,05,11,3.60
2008,03,25,05,12,3.60
2008,03,25,05,13,3.60
2008,03,25,05,14,3.60
2008,03,25,05,15,3.60
2008,03,25,05,16,3.60
2008,03,25,05,17,3.60
2008,03,25,05,18,3.60
2008,03,25,05,19,3.60
2008,03,25,05,20,3.60
2008,03,25,05,21,3.60
2008,03,25,05,22,3.60
2008,03,25,05,23,3.60
2008,03,25,05,24,3.60
2008,03,25,05,25,3.60
2008,03,25,05,26,3.60
2008,03,25,05,27,3.60
2008,03,25,05,28,3.60
2008,03,25,05,29,3.60
2008,03,25,05,30,3.60
2008,03,25,05,31,3.60
2008,03,25,05,32,3.70
2008,03,25,05,33,3.70
2008,03,25,05,34,3.70
2008,03,25,05,35,3.70
2008,03,25,05,36,3.70
2008,03,25,05,37,3.70
2008,03,25,05,38,3.70
2008,03,25,05,39,3.70
2008,03,25,05,40,3.70
2008,03,25,05,41,3.70
2008,03,25,05,42,3.70
2008,03,25,05,43,3.70
2008,03,25,05,44,3.70
2008,03,25,05,45,3.70
2008,03,25,05,46,3.70
2008,03,25,05,47,3.70
2008,03,25,05,48,3.70
2008,03,25,05,49,3.70
2008,03,25,05,50,3.70
2008,03,25,05,51,3.70
2008,03,25,05,52,3.70
2008,03,25,05,53,3.70
2008,03,25,05,54,3.70
2008,03,25,05,55,3.70
2008,03,25,05,56,3.70
2008,03,25,05,57,3.70
2008,03,25,05,58,3.70
2008,03,25,05,59,3.70
2008,03,25,06,00,3.70
2008,03,25,06,01,3.70
2008,03,25,06,02,3.70
2008,03,25,06,03,3.70
2008,03,25,06,04,3.70
2008,03,25,06,05,3.70
2008,03,25,06,06,3.70
2008,03,25,06,07,3.70
2008,03,25,06,08,3.70
2008,03,25,06,09,3.70
2008,03,25,06,10,3.60
2008,03,25,06,11,3.60
2008,03,25,06,12,3.60
2008,03,25,06,13,3.60
2008,03,25,06,14,3.60
2008,03,25,06,15,3.60
2008,03,25,06,16,3.60
2008,03,25,06,17,3.60
2008,03,25,06,18,3.60
2008,03,25,06,19,3.60
2008,03,25,06,20,3.60
2008,03,25,06,21,3.60
2008,03,25,06,22,3.60
2008,03,25,06,23,3.60
2008,03,25,06,24,3.60
2008,03,25,06,25,3.60
2008,03,25,06,26,3.70
2008,03,25,06,27,3.70
2008,03,25,06,28,3.70
2008,03,25,06,29,3.70
2008,03,25,06,30,3.70
2008,03,25,06,31,3.70
2008,03,25,06,32,3.80
2008,03,25,06,33,3.80
2008,03,25,06,34,3.80
2008,03,25,06,35,3.80
2008,03,25,06,36,3.80
2008,03,25,06,37,3.80
2008,03,25,06,38,3.80
2008,03,25,06,39,3.80
2008,03,25,06,40,3.80
2008,03,25,06,41,3.80
2008,03,25,06,42,3.80
2008,03,25,06,43,3.80
2008,03,25,06,44,3.80
2008,03,25,06,45,3.80
2008,03,25,06,46,3.80
2008,03,25,06,47,3.80
2008,03,25,06,48,3.80
2008,03,25,06,49,3.80
2008,03,25,06,50,3.80
2008,03,25,06,51,3.80
2008,03,25,06,52,3.80
2008,03,25,06,53,3.90
2008,03,25,06,54,3.90
2008,03,25,06,55,3.90
2008,03,25,06,56,3.90
2008,03,25,06,57,3.90
2008,03,25,06,58,3.90
2008,03,25,06,59,4.20
2008,03,25,07,00,4.20
2008,03,25,07,01,4.20
2008,03,25,07,02,4.20
2008,03,25,07,03,4.20
2008,03,25,07,04,4.20
2008,03,25,07,05,4.20
2008,03,25,07,06,4.20
2008,03,25,07,07,4.20
2008,03,25,07,08,4.20
2008,03,25,07,09,4.20
2008,03,25,07,10,4.20
2008,03,25,07,11,4.20
2008,03,25,07,12,4.20
2008,03,25,07,13,4.20
2008,03,25,07,14,4.20
2008,03,25,07,15,4.20
2008,03,25,07,16,4.20
2008,03,25,07,17,4.20
2008,03,25,07,18,4.20
2008,03,25,07,19,4.20
2008,03,25,07,20,4.30
2008,03,25,07,21,4.30
2008,03,25,07,22,4.30
2008,03,25,07,23,4.30
2008,03,25,07,24,4.30
2008,03,25,07,25,4.30
2008,03,25,07,26,4.30
2008,03,25,07,27,4.30
2008,03,25,07,28,4.30
2008,03,25,07,29,4.30
2008,03,25,07,30,4.30
2008,03,25,07,31,4.30
2008,03,25,07,32,4.30
2008,03,25,07,33,4.30
2008,03,25,07,34,4.30
2008,03,25,07,35,4.30
2008,03,25,07,36,4.30
2008,03,25,07,37,4.30
2008,03,25,07,39,4.30
2008,03,25,07,40,4.30
2008,03,25,07,41,4.30
2008,03,25,07,42,4.30
2008,03,25,07,43,4.30
2008,03,25,07,44,4.30
2008,03,25,07,45,4.30
2008,03,25,07,46,4.30
2008,03,25,07,47,4.40
2008,03,25,07,48,4.40
2008,03,25,07,49,4.40
2008,03,25,07,50,4.40
2008,03,25,07,51,4.40
2008,03,25,07,52,4.40
2008,03,25,07,53,4.30
2008,03,25,07,54,4.30
2008,03,25,07,55,4.30
2008,03,25,07,56,4.30
2008,03,25,07,57,4.30
2008,03,25,07,58,4.30
2008,03,25,07,59,4.30
2008,03,25,08,00,4.30
2008,03,25,08,01,4.30
2008,03,25,08,02,4.30
2008,03,25,08,03,4.30
2008,03,25,08,04,4.30
2008,03,25,08,05,4.30
2008,03,25,08,06,4.30
2008,03,25,08,07,4.30
2008,03,25,08,08,4.30
2008,03,25,08,09,4.30
2008,03,25,08,10,4.30
2008,03,25,08,11,4.30
2008,03,25,08,12,4.30
2008,03,25,08,13,4.30
2008,03,25,08,14,4.30
2008,03,25,08,15,4.30
2008,03,25,08,16,4.30
2008,03,25,08,17,4.30
2008,03,25,08,18,4.30
2008,03,25,08,19,4.30
2008,03,25,08,20,4.30
2008,03,25,08,21,4.30
2008,03,25,08,22,4.30
2008,03,25,08,23,4.30
2008,03,25,08,24,4.30
2008,03,25,08,25,4.30
2008,03,25,08,26,4.20
2008,03,25,08,27,4.20
2008,03,25,08,28,4.20
2008,03,25,08,29,4.20
2008,03,25,08,30,4.20
2008,03,25,08,31,4.20
2008,03,25,08,32,4.20
2008,03,25,08,33,4.20
2008,03,25,08,34,4.20
2008,03,25,08,35,4.20
2008,03,25,08,36,4.20
2008,03,25,08,37,4.20
2008,03,25,08,38,4.20
2008,03,25,08,39,4.20
2008,03,25,08,40,4.20
2008,03,25,08,41,4.20
2008,03,25,08,42,4.30
2008,03,25,08,43,4.30
2008,03,25,08,44,4.30
2008,03,25,08,45,4.30
2008,03,25,08,46,4.30
2008,03,25,08,47,4.30
2008,03,25,08,48,4.30
2008,03,25,08,49,4.30
2008,03,25,08,50,4.30
2008,03,25,08,51,4.30
2008,03,25,08,52,4.30
2008,03,25,08,53,4.30
2008,03,25,08,54,4.30
2008,03,25,08,55,4.30
2008,03,25,08,56,4.40
2008,03,25,08,57,4.40
2008,03,25,08,58,4.40
2008,03,25,08,59,4.40
2008,03,25,09,00,4.40
2008,03,25,09,01,4.40
2008,03,25,09,02,4.40
2008,03,25,09,03,4.40
2008,03,25,09,04,4.40
2008,03,25,09,05,4.40
2008,03,25,09,06,4.40
2008,03,25,09,07,4.40
2008,03,25,09,08,4.40
2008,03,25,09,09,4.40
2008,03,25,09,10,4.40
2008,03,25,09,11,4.40
2008,03,25,09,12,4.40
2008,03,25,09,13,4.40
2008,03,25,09,14,4.40
2008,03,25,09,15,4.40
2008,03,25,09,16,4.40
2008,03,25,09,17,4.40
2008,03,25,09,18,4.40
2008,03,25,09,19,4.40
2008,03,25,09,20,4.40
2008,03,25,09,21,4.40
2008,03,25,09,23,4.40
2008,03,25,09,24,4.50
2008,03,25,09,25,4.50
2008,03,25,09,26,4.50
2008,03,25,09,27,4.50
2008,03,25,09,28,4.50
2008,03,25,09,29,4.50
2008,03,25,09,30,4.50
2008,03,25,09,31,4.50
2008,03,25,09,32,4.50
2008,03,25,09,33,4.50
2008,03,25,09,34,4.50
2008,03,25,09,35,4.50
2008,03,25,09,36,4.50
2008,03,25,09,37,4.60
2008,03,25,09,38,4.60
2008,03,25,09,39,4.60
2008,03,25,09,40,4.60
2008,03,25,09,41,4.60
2008,03,25,09,42,4.60
2008,03,25,09,43,4.70
2008,03,25,09,44,4.70
2008,03,25,09,45,4.70
2008,03,25,09,46,4.70
2008,03,25,09,47,4.70
2008,03,25,09,48,4.70
2008,03,25,09,49,4.90
2008,03,25,09,50,4.90
2008,03,25,09,51,4.90
2008,03,25,09,52,4.90
2008,03,25,09,53,4.90
2008,03,25,09,54,4.90
2008,03,25,09,55,4.90
2008,03,25,09,56,4.90
2008,03,25,09,57,4.90
2008,03,25,09,58,4.90
2008,03,25,09,59,4.90
2008,03,25,10,00,4.90
2008,03,25,10,01,4.90
2008,03,25,10,02,4.90
2008,03,25,10,03,4.90
2008,03,25,10,04,4.90
2008,03,25,10,05,5.30
2008,03,25,10,06,5.30
2008,03,25,10,07,5.30
2008,03,25,10,08,5.30
2008,03,25,10,09,5.30
2008,03,25,10,10,5.30
2008,03,25,10,11,5.60
2008,03,25,10,12,5.60
2008,03,25,10,13,5.60
2008,03,25,10,14,5.60
2008,03,25,10,15,5.60
2008,03,25,10,16,5.60
2008,03,25,10,17,5.70
2008,03,25,10,19,5.70
2008,03,25,10,20,5.60
2008,03,25,10,21,5.60
2008,03,25,10,22,5.60
2008,03,25,10,23,5.60
2008,03,25,10,24,5.60
2008,03,25,10,25,5.60
2008,03,25,10,26,5.60
2008,03,25,10,27,5.60
2008,03,25,10,28,5.60
2008,03,25,10,29,5.60
2008,03,25,10,30,5.60
2008,03,25,10,31,5.60
2008,03,25,10,32,5.60
2008,03,25,10,33,5.70
2008,03,25,10,34,5.70
2008,03,25,10,35,5.70
2008,03,25,10,36,5.70
2008,03,25,10,37,5.70
2008,03,25,10,38,5.70
2008,03,25,10,39,5.60
2008,03,25,10,40,5.60
2008,03,25,10,41,5.60
2008,03,25,10,42,5.60
2008,03,25,10,43,5.60
2008,03,25,10,44,5.60
2008,03,25,10,45,5.60
2008,03,25,10,46,5.60
2008,03,25,10,47,5.60
2008,03,25,10,48,5.60
2008,03,25,10,49,5.60
2008,03,25,10,50,5.60
2008,03,25,10,51,5.60
2008,03,25,10,52,5.60
2008,03,25,10,53,5.60
2008,03,25,10,54,5.60
2008,03,25,10,55,5.60
2008,03,25,10,56,5.60
2008,03,25,10,57,5.60
2008,03,25,10,58,5.60
2008,03,25,10,59,5.60
2008,03,25,11,00,5.60
2008,03,25,11,01,5.60
2008,03,25,11,02,5.60
2008,03,25,11,03,5.60
2008,03,25,11,04,5.60
2008,03,25,11,05,5.60
2008,03,25,11,06,5.60
2008,03,25,11,07,5.60
2008,03,25,11,08,5.60
2008,03,25,11,09,5.60
2008,03,25,11,10,5.60
2008,03,25,11,11,5.60
2008,03,25,11,12,5.70
2008,03,25,11,13,5.70
2008,03,25,11,14,5.70
2008,03,25,11,15,5.70
2008,03,25,11,16,5.70
2008,03,25,11,17,5.70
2008,03,25,11,18,5.70
2008,03,25,11,19,5.70
2008,03,25,11,20,5.70
2008,03,25,11,21,5.70
2008,03,25,11,22,5.70
2008,03,25,11,23,5.70
2008,03,25,11,24,5.70
2008,03,25,11,25,5.70
2008,03,25,11,26,5.70
2008,03,25,11,27,5.70
2008,03,25,11,28,5.80
2008,03,25,11,29,5.80
2008,03,25,11,30,5.80
2008,03,25,11,31,5.80
2008,03,25,11,32,5.80
2008,03,25,11,33,5.80
2008,03,25,11,34,5.80
2008,03,25,11,35,5.80
2008,03,25,11,36,5.80
2008,03,25,11,37,5.80
2008,03,25,11,38,5.80
2008,03,25,11,39,5.80
2008,03,25,11,40,5.70
2008,03,25,11,41,5.70
2008,03,25,11,42,5.70
2008,03,25,11,43,5.80
2008,03,25,11,44,5.80
2008,03,25,11,45,5.80
2008,03,25,11,46,5.80
2008,03,25,11,47,5.80
2008,03,25,11,48,5.80
2008,03,25,11,49,5.80
2008,03,25,11,50,5.80
2008,03,25,11,51,5.80
2008,03,25,11,52,5.80
2008,03,25,11,53,5.80
2008,03,25,11,54,5.80
2008,03,25,11,55,5.80
2008,03,25,11,56,5.90
2008,03,25,11,57,5.90
2008,03,25,11,58,5.90
2008,03,25,11,59,5.90
2008,03,25,12,00,5.90
2008,03,25,12,01,6.10
2008,03,25,12,02,6.10
2008,03,25,12,03,6.10
2008,03,25,12,04,6.10
2008,03,25,12,05,6.10
2008,03,25,12,06,6.10
2008,03,25,12,07,6.10
2008,03,25,12,08,6.10
2008,03,25,12,09,6.10
2008,03,25,12,10,6.10
2008,03,25,12,11,6.10
2008,03,25,12,12,6.10
2008,03,25,12,13,6.10
2008,03,25,12,14,6.10
2008,03,25,12,15,6.10
2008,03,25,12,16,6.10
2008,03,25,12,17,6.10
2008,03,25,12,18,6.10
2008,03,25,12,19,6.10
2008,03,25,12,20,6.10
2008,03,25,12,21,6.10
2008,03,25,12,22,6.10
2008,03,25,12,23,6.30
2008,03,25,12,24,6.30
2008,03,25,12,25,6.30
2008,03,25,12,26,6.30
2008,03,25,12,27,6.30
2008,03,25,12,28,6.30
2008,03,25,12,29,6.30
2008,03,25,12,30,6.30
2008,03,25,12,31,6.30
2008,03,25,12,32,6.30
2008,03,25,12,33,6.30
2008,03,25,12,34,6.30
2008,03,25,12,35,6.30
2008,03,25,12,36,6.30
2008,03,25,12,37,6.30
2008,03,25,12,38,6.50
2008,03,25,12,39,6.50
2008,03,25,12,40,6.50
2008,03,25,12,41,6.50
2008,03,25,12,42,6.50
2008,03,25,12,43,6.50
2008,03,25,12,44,6.50
2008,03,25,12,46,6.50
2008,03,25,12,47,6.50
2008,03,25,12,48,6.50
2008,03,25,12,49,6.50
2008,03,25,12,50,6.50
2008,03,25,12,51,6.50
2008,03,25,12,52,6.50
2008,03,25,12,53,6.50
2008,03,25,12,54,6.50
2008,03,25,12,55,6.50
2008,03,25,12,56,6.50
2008,03,25,12,57,6.50
2008,03,25,12,58,6.50
2008,03,25,12,59,6.50
2008,03,25,13,00,6.50
2008,03,25,13,01,6.50
2008,03,25,13,02,6.50
2008,03,25,13,03,6.60
2008,03,25,13,04,6.60
2008,03,25,13,05,6.60
2008,03,25,13,06,6.60
2008,03,25,13,07,6.60
2008,03,25,13,08,6.60
2008,03,25,13,09,6.60
2008,03,25,13,10,6.60
2008,03,25,13,11,6.60
2008,03,25,13,12,6.60
2008,03,25,13,13,6.60
2008,03,25,13,14,6.60
2008,03,25,13,15,6.60
2008,03,25,13,16,6.60
2008,03,25,13,17,6.60
2008,03,25,13,18,6.60
2008,03,25,13,19,6.60
2008,03,25,13,21,6.60
2008,03,25,13,22,6.60
2008,03,25,13,23,6.70
2008,03,25,13,24,6.70
2008,03,25,13,25,6.70
2008,03,25,13,26,6.70
2008,03,25,13,27,6.70
2008,03,25,13,28,6.70
2008,03,25,13,29,6.50
2008,03,25,13,30,6.50
2008,03,25,13,31,6.50
2008,03,25,13,32,6.50
2008,03,25,13,33,6.50
2008,03,25,13,34,6.50
2008,03,25,13,35,6.50
2008,03,25,13,37,6.50
2008,03,25,13,38,6.50
2008,03,25,13,39,6.50
2008,03,25,13,40,6.50
2008,03,25,13,41,6.50
2008,03,25,13,42,6.50
2008,03,25,13,43,6.50
2008,03,25,13,44,6.50
2008,03,25,13,45,6.20
2008,03,25,13,46,6.20
2008,03,25,13,47,6.20
2008,03,25,13,48,6.20
2008,03,25,13,49,6.20
2008,03,25,13,50,6.20
2008,03,25,13,51,6.00
2008,03,25,13,52,6.00
2008,03,25,13,53,6.00
2008,03,25,13,54,6.00
2008,03,25,13,55,6.00
2008,03,25,13,56,6.00
2008,03,25,13,57,6.10
2008,03,25,13,58,6.10
2008,03,25,13,59,6.20
2008,03,25,14,00,6.20
2008,03,25,14,01,6.20
2008,03,25,14,02,6.20
2008,03,25,14,03,6.20
2008,03,25,14,04,6.20
2008,03,25,14,05,6.20
2008,03,25,14,06,6.20
2008,03,25,14,07,6.20
2008,03,25,14,08,6.20
2008,03,25,14,09,6.20
2008,03,25,14,10,6.20
2008,03,25,14,11,6.20
2008,03,25,14,12,6.20
2008,03,25,14,13,6.30
2008,03,25,14,14,6.30
2008,03,25,14,15,6.30
2008,03,25,14,16,6.30
2008,03,25,14,17,6.30
2008,03,25,14,18,6.30
2008,03,25,14,19,6.30
2008,03,25,14,20,6.30
2008,03,25,14,21,6.30
2008,03,25,14,22,6.30
2008,03,25,14,23,6.30
2008,03,25,14,24,6.30
2008,03,25,14,25,6.30
2008,03,25,14,26,6.30
2008,03,25,14,27,6.30
2008,03,25,14,28,6.30
2008,03,25,14,29,6.30
2008,03,25,14,30,6.30
2008,03,25,14,31,6.30
2008,03,25,14,32,6.30
2008,03,25,14,33,6.30
2008,03,25,14,34,6.30
2008,03,25,14,35,6.30
2008,03,25,14,36,6.30
2008,03,25,14,37,6.30
2008,03,25,14,38,6.30
2008,03,25,14,39,6.30
2008,03,25,14,40,6.30
2008,03,25,14,41,6.30
2008,03,25,14,42,6.40
2008,03,25,14,43,6.40
2008,03,25,14,44,6.40
2008,03,25,14,45,6.40
2008,03,25,14,46,6.40
2008,03,25,14,47,6.40
2008,03,25,14,48,6.40
2008,03,25,14,49,6.40
2008,03,25,14,50,6.40
2008,03,25,14,51,6.40
2008,03,25,14,52,6.40
2008,03,25,14,53,6.40
2008,03,25,14,54,6.40
2008,03,25,14,55,6.40
2008,03,25,14,56,6.40
2008,03,25,14,57,6.40
2008,03,25,14,58,6.40
2008,03,25,14,59,6.40
2008,03,25,15,00,6.40
2008,03,25,15,01,6.40
2008,03,25,15,02,6.40
2008,03,25,15,03,6.40
2008,03,25,15,04,6.40
2008,03,25,15,05,6.40
2008,03,25,15,06,6.40
2008,03,25,15,07,6.40
2008,03,25,15,08,6.40
2008,03,25,15,10,6.40
2008,03,25,15,11,6.40
2008,03,25,15,12,6.40
2008,03,25,15,13,6.40
2008,03,25,15,14,6.40
2008,03,25,15,15,6.40
2008,03,25,15,16,6.40
2008,03,25,15,17,6.70
2008,03,25,15,18,6.70
2008,03,25,15,19,6.70
2008,03,25,15,20,6.70
2008,03,25,15,21,6.70
2008,03,25,15,22,6.70
2008,03,25,15,23,6.90
2008,03,25,15,24,6.90
2008,03,25,15,25,6.90
2008,03,25,15,26,7.10
2008,03,25,15,27,7.10
2008,03,25,15,28,7.10
2008,03,25,15,29,7.10
2008,03,25,15,30,7.10
2008,03,25,15,31,7.10
2008,03,25,15,32,7.10
2008,03,25,15,33,7.10
2008,03,25,15,34,7.10
2008,03,25,15,35,7.10
2008,03,25,15,36,7.10
2008,03,25,15,37,7.10
2008,03,25,15,38,7.10
2008,03,25,15,39,7.10
2008,03,25,15,40,7.20
2008,03,25,15,41,7.20
2008,03,25,15,42,7.20
2008,03,25,15,43,7.20
2008,03,25,15,44,7.20
2008,03,25,15,45,7.10
2008,03,25,15,46,7.10
2008,03,25,15,47,7.10
2008,03,25,15,48,7.10
2008,03,25,15,49,7.10
2008,03,25,15,50,7.10
2008,03,25,15,51,7.20
2008,03,25,15,52,7.20
2008,03,25,15,53,7.20
2008,03,25,15,54,7.20
2008,03,25,15,55,7.20
2008,03,25,15,56,7.20
2008,03,25,15,57,7.20
2008,03,25,15,58,7.20
2008,03,25,15,59,7.20
2008,03,25,16,00,7.20
2008,03,25,16,01,7.20
2008,03,25,16,02,7.20
2008,03,25,16,03,7.20
2008,03,25,16,04,7.20
2008,03,25,16,05,7.20
2008,03,25,16,06,7.20
2008,03,25,16,07,7.20
2008,03,25,16,08,7.40
2008,03,25,16,09,7.40
2008,03,25,16,10,7.40
2008,03,25,16,11,7.40
2008,03,25,16,12,7.40
2008,03,25,16,13,7.40
2008,03,25,16,14,7.40
2008,03,25,16,15,7.40
2008,03,25,16,16,7.40
2008,03,25,16,17,7.40
2008,03,25,16,18,7.40
2008,03,25,16,19,7.40
2008,03,25,16,20,7.40
2008,03,25,16,21,7.40
2008,03,25,16,22,7.40
2008,03,25,16,23,7.40
2008,03,25,16,24,7.40
2008,03,25,16,25,7.40
2008,03,25,16,26,7.40
2008,03,25,16,27,7.40
2008,03,25,16,28,7.40
2008,03,25,16,29,7.40
2008,03,25,16,30,7.40
2008,03,25,16,31,7.40
2008,03,25,16,32,7.40
2008,03,25,16,33,7.40
2008,03,25,16,34,7.40
2008,03,25,16,35,7.40
2008,03,25,16,36,7.40
2008,03,25,16,37,7.40
2008,03,25,16,38,7.40
2008,03,25,16,39,7.40
2008,03,25,16,40,7.40
2008,03,25,16,41,7.40
2008,03,25,16,42,7.40
2008,03,25,16,43,7.40
2008,03,25,16,44,7.40
2008,03,25,16,45,7.40
2008,03,25,16,46,7.40
2008,03,25,16,47,7.40
2008,03,25,16,48,7.40
2008,03,25,16,49,7.40
2008,03,25,16,50,7.40
2008,03,25,16,51,7.40
2008,03,25,16,52,7.40
2008,03,25,16,53,7.40
2008,03,25,16,54,7.40
2008,03,25,16,55,7.40
2008,03,25,16,56,7.40
2008,03,25,16,57,7.40
2008,03,25,16,58,7.40
2008,03,25,16,59,7.40
2008,03,25,17,00,7.40
2008,03,25,17,01,7.40
2008,03,25,17,02,7.40
2008,03,25,17,03,7.40
2008,03,25,17,04,7.40
2008,03,25,17,05,7.40
2008,03,25,17,06,7.40
2008,03,25,17,07,7.40
2008,03,25,17,08,7.40
2008,03,25,17,09,7.40
2008,03,25,17,10,7.40
2008,03,25,17,11,7.40
2008,03,25,17,12,7.40
2008,03,25,17,13,7.40
2008,03,25,17,14,7.40
2008,03,25,17,15,7.40
2008,03,25,17,16,7.40
2008,03,25,17,17,7.40
2008,03,25,17,18,7.40
2008,03,25,17,19,7.40
2008,03,25,17,20,7.40
2008,03,25,17,21,7.40
2008,03,25,17,22,7.40
2008,03,25,17,23,7.40
2008,03,25,17,24,7.40
2008,03,25,17,25,7.40
2008,03,25,17,26,7.40
2008,03,25,17,27,7.40
2008,03,25,17,28,7.40
2008,03,25,17,29,7.40
2008,03,25,17,30,7.40
2008,03,25,17,31,7.40
2008,03,25,17,32,7.40
2008,03,25,17,33,7.40
2008,03,25,17,34,7.40
2008,03,25,17,35,7.40
2008,03,25,17,36,7.40
2008,03,25,17,37,7.40
2008,03,25,17,38,7.40
2008,03,25,17,39,7.40
2008,03,25,17,40,7.40
2008,03,25,17,41,7.40
2008,03,25,17,42,7.40
2008,03,25,17,43,7.40
2008,03,25,17,44,7.40
2008,03,25,17,45,7.40
2008,03,25,17,46,7.40
2008,03,25,17,47,7.40
2008,03,25,17,48,7.40
2008,03,25,17,49,7.40
2008,03,25,17,50,7.40
2008,03,25,17,51,7.40
2008,03,25,17,52,7.40
2008,03,25,17,53,7.40
2008,03,25,17,54,7.40
2008,03,25,17,55,7.40
2008,03,25,17,56,7.40
2008,03,25,17,57,7.40
2008,03,25,17,58,7.40
2008,03,25,17,59,7.40
2008,03,25,18,00,7.40
2008,03,25,18,01,7.40
2008,03,25,18,02,7.40
2008,03,25,18,03,7.40
2008,03,25,18,04,7.40
2008,03,25,18,05,7.40
2008,03,25,18,06,7.40
2008,03,25,18,07,7.40
2008,03,25,18,08,7.40
2008,03,25,18,09,7.40
2008,03,25,18,10,7.40
2008,03,25,18,11,7.40
2008,03,25,18,12,7.40
2008,03,25,18,13,7.40
2008,03,25,18,14,7.40
2008,03,25,18,15,7.40
2008,03,25,18,16,7.40
2008,03,25,18,17,7.40
2008,03,25,18,18,7.40
2008,03,25,18,19,7.40
2008,03,25,18,20,7.40
2008,03,25,18,21,7.40
2008,03,25,18,22,7.40
2008,03,25,18,23,7.40
2008,03,25,18,24,7.40
2008,03,25,18,25,7.40
2008,03,25,18,26,7.40
2008,03,25,18,27,7.40
2008,03,25,18,28,7.40
2008,03,25,18,29,7.40
2008,03,25,18,30,7.40
2008,03,25,18,31,7.40
2008,03,25,18,32,7.40
2008,03,25,18,33,7.40
2008,03,25,18,34,7.40
2008,03,25,18,35,7.40
2008,03,25,18,36,7.40
2008,03,25,18,37,7.40
2008,03,25,18,38,7.40
2008,03,25,18,39,7.40
2008,03,25,18,40,7.40
2008,03,25,18,41,7.40
2008,03,25,18,42,7.40
2008,03,25,18,43,7.40
2008,03,25,18,44,7.40
2008,03,25,18,45,7.40
2008,03,25,18,46,7.40
2008,03,25,18,47,7.40
2008,03,25,18,48,7.40
2008,03,25,18,49,7.40
2008,03,25,18,50,7.40
2008,03,25,18,51,7.40
2008,03,25,18,52,7.40
2008,03,25,18,53,7.40
2008,03,25,18,54,7.40
2008,03,25,18,55,7.40
2008,03,25,18,56,7.40
2008,03,25,18,57,7.40
2008,03,25,18,58,7.40
2008,03,25,18,59,7.40
2008,03,25,19,00,7.40
2008,03,25,19,01,7.40
2008,03,25,19,02,7.40
2008,03,25,19,03,7.40
2008,03,25,19,04,7.40
2008,03,25,19,05,7.40
2008,03,25,19,06,7.40
2008,03,25,19,07,7.40
2008,03,25,19,08,7.40
2008,03,25,19,09,7.40
2008,03,25,19,10,7.40
2008,03,25,19,11,7.40
2008,03,25,19,12,7.40
2008,03,25,19,13,7.40
2008,03,25,19,14,7.40
2008,03,25,19,15,7.40
2008,03,25,19,16,7.40
2008,03,25,19,17,7.40
2008,03,25,19,18,7.40
2008,03,25,19,19,7.40
2008,03,25,19,20,7.40
2008,03,25,19,21,7.40
2008,03,25,19,22,7.40
2008,03,25,19,23,7.40
2008,03,25,19,24,7.40
2008,03,25,19,25,7.40